[[{"header":{"parameterUnit":"m.s-1","parameterCategory":1,"la1":30.2991,"la2":30.254,"lo1":-89.0895,"lo2":-89.0444,"dy":0.0017,"dx":0.0017,"nx":28,"ny":28,"refTime":"2025-01-31T03:00:00:Z","depth":0,"parameterNumber":2,"parameterNumberName":"U-component_of_WINDS"},"data":[0,0,0,0,0,0,0,0,0,0,0,0,0,0,0,0,0,0,0,0,0,0,0,0,0,0,0,0,0,0,0,0,0,0,0,0,0,0,0,0,0,0,0,0,0,0,0,0,0,0,0,0,0,0,0,0,0,0,3.2476,3.2475,0,3.2366,3.2365,3.2364,3.2286,3.2286,3.2285,3.2285,3.2168,3.2166,3.2163,0,0,0,0,0,0,0,0,0,0,0,0,0,3.2617,3.2615,3.2477,3.2475,3.2474,3.2366,3.2365,3.2363,3.2286,3.2286,3.2285,3.2284,3.2169,3.2166,3.2163,0,0,0,0,0,0,0,0,0,0,0,0,0,3.2536,3.2614,3.2477,3.2422,3.2417,3.2367,3.2365,3.2363,3.2287,3.2286,3.2285,3.2284,3.217,3.2166,3.2163,3.2157,0,0,3.2151,3.2149,0,0,0,0,0,0,0,0,3.2541,3.2531,3.2432,3.2426,3.2419,3.2339,3.2372,3.2294,3.2287,3.2336,3.2285,3.2284,3.2226,3.2217,3.2198,3.2151,3.2146,3.2151,3.2148,3.2147,3.2146,0,0,0,0,0,0,0,3.2547,3.2535,3.2433,3.243,3.2423,3.2403,3.239,3.2357,3.2287,3.2331,3.2326,3.2314,3.2222,3.2202,3.2195,3.2145,3.2151,3.2147,3.2145,3.2143,3.2087,3.2088,0,0,0,0,0,0,3.2561,3.2541,3.2436,3.2429,3.2479,3.2401,3.2387,3.2366,3.2287,3.2274,3.2315,3.2311,3.2209,3.22,3.2191,3.2178,3.2147,3.2143,3.2141,3.2086,3.2087,3.2088,0,0,0,0,0,0,3.2565,3.2553,3.2441,3.2483,3.2468,3.2399,3.2376,3.2364,3.2344,3.2275,3.2261,3.2308,3.2208,3.2196,3.2166,3.2173,3.2141,3.2138,3.2085,3.2087,3.2088,3.2154,0,0,0,0,0,0,3.2569,3.2554,3.2552,3.2484,3.2466,3.2419,3.2377,3.2363,3.2338,3.2332,3.2264,3.2252,3.2206,3.2172,3.2162,3.2167,3.2135,3.2084,3.2086,3.2087,3.2151,3.2157,3.2163,0,0,0,0,0,3.2574,3.2574,3.2552,3.254,3.2462,3.242,3.2409,3.2357,3.2339,3.2336,3.2291,3.2254,3.2175,3.217,3.2158,3.2162,3.2084,3.2086,3.2087,3.2148,3.2156,3.2163,0,0,0,0,0,0,3.2644,3.2564,3.2539,3.2518,3.2476,3.2407,3.2401,3.2368,3.2329,3.2325,3.2261,3.2247,3.2223,3.219,3.2186,3.2152,3.2124,3.2124,3.2175,3.2182,3.2188,3.2196,3.2132,0,0,0,0,0,3.2657,3.263,3.2562,3.255,3.253,3.247,3.2449,3.2413,3.2367,3.2349,3.2302,3.2258,3.2222,3.22,3.2164,3.2146,3.213,3.2143,3.2149,3.2155,3.2154,3.2142,3.2147,3.2094,3.2094,3.2094,0,0,3.2683,3.2636,3.2623,3.2562,3.2526,3.2499,3.2455,3.2428,3.2407,3.2344,3.2313,3.2278,3.2224,3.22,3.2187,3.2171,3.2166,3.2157,3.2162,3.2158,3.2144,3.2149,3.2154,3.2095,3.2095,3.2095,0,0,3.2717,3.2679,3.2665,3.263,3.2576,3.2535,3.2532,3.2468,3.2442,3.241,3.2362,3.2336,3.2277,3.2241,3.2214,3.2236,3.22,3.2226,3.2257,3.2245,3.2249,3.2253,3.2259,3.2263,3.2226,3.2226,3.2226,0,3.2755,3.2714,3.2661,3.2637,3.2612,3.2555,3.2539,3.2507,3.2444,3.2427,3.2411,3.2336,3.2295,3.2262,3.2268,3.2249,3.2242,3.2232,3.2253,3.2256,3.2258,3.2264,3.2267,3.223,3.2229,3.2229,3.2229,0,3.2764,3.2736,3.273,3.2672,3.2646,3.2626,3.257,3.2549,3.2516,3.2477,3.2446,3.2396,3.2348,3.2338,3.2305,3.23,3.2292,3.2265,3.2236,3.2268,3.2272,3.2274,3.2235,3.2233,3.2232,3.2232,0,0,3.2837,3.2751,3.2749,3.2722,3.2659,3.2636,3.2613,3.2568,3.2552,3.251,3.2489,3.2441,3.2417,3.2387,3.2349,3.234,3.2359,3.2314,3.2312,3.2323,3.2349,3.2369,3.2372,3.2335,3.2336,3.2336,3.2353,0,3.286,3.2818,3.277,3.2744,3.2717,3.2664,3.2644,3.2603,3.2566,3.2537,3.2496,3.2463,3.2434,3.2415,3.2403,3.2359,3.2363,3.2357,3.2314,3.2313,3.2328,3.2374,3.2395,3.2413,3.2355,3.2355,3.2355,0,3.2881,3.2843,3.2815,3.2755,3.2742,3.2725,3.268,3.2654,3.2605,3.2579,3.2548,3.2508,3.248,3.2456,3.2417,3.2414,3.2394,3.2369,3.2369,3.2361,3.2335,3.2367,3.2418,3.2421,3.2357,3.2357,3.2357,0,3.2936,3.2878,3.2854,3.2832,3.2762,3.2751,3.2721,3.2672,3.2648,3.2609,3.2592,3.255,3.2526,3.2494,3.2444,3.243,3.241,3.2381,3.2386,3.2388,3.2383,3.2384,3.243,3.2372,3.2372,3.2372,3.2372,0,3.2966,3.295,3.2878,3.2863,3.2844,3.2789,3.2771,3.2736,3.2693,3.2669,3.2621,3.2599,3.2534,3.2505,3.2465,3.2439,3.2429,3.2406,3.2395,3.241,3.2412,3.2394,3.2391,3.2373,3.2373,3.2373,3.2373,0,3.3023,3.2974,3.2944,3.288,3.2864,3.2852,3.2797,3.278,3.2741,3.2712,3.2702,3.2641,3.2604,3.2551,3.2497,3.247,3.2449,3.2433,3.2466,3.2459,3.2467,3.2466,3.2502,3.2504,3.2447,3.2447,3.2448,0,3.3045,3.3032,3.2967,3.2949,3.2921,3.2891,3.2867,3.2812,3.2789,3.2734,3.2723,3.2683,3.2647,3.2591,3.2541,3.2499,3.2481,3.2496,3.2474,3.2489,3.248,3.2481,3.2478,3.2501,3.2502,3.2503,3.2503,0,3.3088,3.3065,3.3033,3.2992,3.2965,3.293,3.2893,3.288,3.2817,3.2793,3.2756,3.2729,3.2675,3.2635,3.2587,3.2554,3.2518,3.2511,3.251,3.2524,3.2543,3.2531,3.2479,3.251,3.2509,3.2509,3.2509,3.2508,3.3127,3.3114,3.3066,3.3032,3.2998,3.2965,3.2946,3.2905,3.2873,3.2826,3.2796,3.276,3.2711,3.2644,3.2613,3.2583,3.2568,3.2567,3.2566,3.2566,3.2571,3.2549,3.2575,3.2574,3.2574,3.2574,3.2574,0,3.3168,3.3135,3.3104,3.3054,3.3027,3.2997,3.2954,3.2933,3.2902,3.2861,3.2828,3.2785,3.2746,3.2694,3.2651,3.2637,3.2619,3.2628,3.2627,3.262,3.2587,3.2592,3.2643,3.2643,3.2643,3.2643,3.2643,3.2643,3.3185,3.316,3.3131,3.3088,3.3055,3.302,3.2998,3.2967,3.2934,3.2888,3.2856,3.2823,3.2777,3.2731,3.2694,3.2679,3.2665,3.2678,3.2659,3.2629,3.2622,3.2616,3.2621,3.2676,3.2676,3.2694,3.2694,3.2694]},{"header":{"parameterUnit":"m.s-1","parameterCategory":1,"la1":30.2991,"la2":30.254,"lo1":-89.0895,"lo2":-89.0444,"dy":0.0017,"dx":0.0017,"nx":28,"ny":28,"refTime":"2025-01-31T03:00:00:Z","depth":0,"parameterNumber":3,"parameterNumberName":"V-component_of_WINDS"},"data":[0,0,0,0,0,0,0,0,0,0,0,0,0,0,0,0,0,0,0,0,0,0,0,0,0,0,0,0,0,0,0,0,0,0,0,0,0,0,0,0,0,0,0,0,0,0,0,0,0,0,0,0,0,0,0,0,0,0,0.8829,0.883,0,0.8938,0.8939,0.894,0.8972,0.8972,0.8971,0.8971,0.908,0.9084,0.9087,0,0,0,0,0,0,0,0,0,0,0,0,0,0.8648,0.8651,0.8829,0.883,0.8832,0.8938,0.8939,0.8941,0.8972,0.8972,0.8971,0.897,0.9079,0.9083,0.9087,0,0,0,0,0,0,0,0,0,0,0,0,0,0.8738,0.8652,0.8829,0.886,0.8864,0.8937,0.8939,0.8941,0.8972,0.8972,0.8971,0.897,0.9078,0.9083,0.9088,0.9137,0,0,0.9104,0.9106,0,0,0,0,0,0,0,0,0.8733,0.8745,0.8854,0.8858,0.8863,0.8941,0.8915,0.9006,0.8973,0.8931,0.8971,0.897,0.9034,0.9043,0.9065,0.9142,0.9146,0.9104,0.9107,0.9109,0.9111,0,0,0,0,0,0,0,0.8727,0.874,0.8872,0.8856,0.8861,0.8869,0.8881,0.8933,0.8986,0.8935,0.8937,0.895,0.9036,0.906,0.9068,0.9148,0.9104,0.9109,0.9112,0.9114,0.927,0.9271,0,0,0,0,0,0,0.8715,0.8735,0.8869,0.8875,0.8795,0.8873,0.8886,0.8916,0.8986,0.8996,0.8951,0.8951,0.9052,0.9062,0.9072,0.9134,0.9109,0.9114,0.9117,0.9269,0.927,0.9271,0,0,0,0,0,0,0.8711,0.8727,0.8864,0.8806,0.8824,0.8877,0.8911,0.8919,0.8943,0.8998,0.9007,0.8965,0.9051,0.9065,0.912,0.9138,0.9117,0.9121,0.9268,0.9269,0.9271,0.9258,0,0,0,0,0,0,0.8706,0.8725,0.8745,0.8806,0.8827,0.8911,0.8912,0.8922,0.8952,0.8953,0.9014,0.9023,0.9052,0.9113,0.9126,0.9145,0.9125,0.9266,0.9268,0.927,0.9257,0.9259,0.926,0,0,0,0,0,0.8699,0.8736,0.8746,0.8761,0.8852,0.8912,0.8924,0.8957,0.8953,0.8973,0.9008,0.9021,0.9134,0.9118,0.9133,0.9154,0.9265,0.9268,0.927,0.9256,0.9258,0.926,0,0,0,0,0,0,0.8675,0.8745,0.8756,0.8814,0.8857,0.8918,0.8944,0.8958,0.9003,0.9003,0.9041,0.9054,0.9107,0.9136,0.9117,0.9205,0.92,0.9205,0.9184,0.9187,0.9188,0.918,0.913,0,0,0,0,0,0.8677,0.872,0.8778,0.8824,0.8845,0.889,0.8918,0.8939,0.8985,0.9004,0.9043,0.9086,0.9132,0.9161,0.9206,0.9261,0.9274,0.9283,0.9284,0.9286,0.929,0.9321,0.9326,0.9279,0.9279,0.9279,0,0,0.868,0.8723,0.8748,0.882,0.8856,0.89,0.8906,0.8951,0.8984,0.901,0.9066,0.9096,0.9147,0.9203,0.9229,0.9228,0.9306,0.9289,0.9289,0.9293,0.9324,0.9329,0.9332,0.9281,0.9281,0.928,0,0,0.8708,0.8746,0.8788,0.8824,0.8878,0.8908,0.8918,0.8977,0.8998,0.9054,0.9075,0.9114,0.9191,0.9227,0.9255,0.9297,0.931,0.931,0.9319,0.935,0.9353,0.9357,0.9372,0.9377,0.9314,0.9314,0.9314,0,0.8706,0.8773,0.8807,0.8853,0.8883,0.891,0.8953,0.8986,0.9052,0.9072,0.907,0.9168,0.9204,0.9269,0.9279,0.9301,0.9313,0.9304,0.935,0.9354,0.9358,0.9372,0.9378,0.9314,0.9314,0.9314,0.9314,0,0.8766,0.8813,0.884,0.8904,0.8938,0.8981,0.9022,0.9052,0.9071,0.9101,0.9158,0.9202,0.9256,0.9273,0.9291,0.934,0.9338,0.9343,0.9339,0.9361,0.9376,0.9381,0.9314,0.9314,0.9314,0.9314,0,0,0.8783,0.8866,0.8875,0.8904,0.8967,0.9003,0.9047,0.9101,0.9126,0.917,0.9208,0.9273,0.9278,0.931,0.9332,0.9359,0.9389,0.936,0.9362,0.9364,0.9446,0.9442,0.9448,0.9398,0.9399,0.94,0.9441,0,0.8819,0.8901,0.8934,0.8999,0.9042,0.9068,0.9107,0.9149,0.9178,0.9218,0.925,0.9295,0.9298,0.9318,0.9345,0.938,0.9406,0.9377,0.9434,0.9435,0.9421,0.9456,0.9452,0.9488,0.9447,0.9448,0.9449,0,0.8873,0.8919,0.8989,0.9046,0.9065,0.91,0.9151,0.919,0.9238,0.9257,0.9292,0.9314,0.9361,0.9353,0.9419,0.9398,0.9423,0.9444,0.9446,0.9453,0.9444,0.9463,0.9501,0.9506,0.9458,0.9457,0.9457,0,0.8878,0.8957,0.9009,0.9034,0.9101,0.9125,0.9154,0.9201,0.9231,0.9276,0.9296,0.9346,0.9373,0.9411,0.9444,0.9436,0.9506,0.9502,0.9523,0.9522,0.9537,0.9536,0.9579,0.9553,0.9553,0.9553,0.9553,0,0.8915,0.8957,0.9013,0.9045,0.9093,0.913,0.9176,0.9206,0.9248,0.9286,0.9311,0.9346,0.9389,0.9429,0.9456,0.9505,0.9517,0.9534,0.9541,0.9532,0.953,0.9549,0.9548,0.9554,0.9554,0.9554,0.9553,0,0.8929,0.8968,0.9027,0.9086,0.9102,0.9135,0.9186,0.9217,0.9248,0.9296,0.9309,0.9356,0.9405,0.9443,0.9506,0.9524,0.9577,0.9584,0.9561,0.9564,0.9584,0.9581,0.9641,0.9651,0.9617,0.9618,0.9618,0,0.8951,0.8984,0.9047,0.9075,0.9104,0.9148,0.918,0.9217,0.9248,0.9305,0.933,0.9381,0.9424,0.95,0.954,0.9588,0.9597,0.9614,0.9604,0.9595,0.9597,0.9595,0.9598,0.9616,0.9616,0.9616,0.9616,0,0.8985,0.9002,0.9047,0.9098,0.9134,0.9176,0.9219,0.924,0.9284,0.9318,0.9369,0.9402,0.9467,0.9517,0.957,0.9599,0.9615,0.9619,0.9627,0.9618,0.9604,0.9612,0.9565,0.9618,0.9617,0.9617,0.9617,0.9617,0.9003,0.9034,0.9083,0.9132,0.9168,0.9207,0.924,0.9275,0.9318,0.9374,0.9393,0.9446,0.9492,0.9565,0.9594,0.9635,0.9636,0.9647,0.9649,0.9652,0.9651,0.9597,0.9645,0.9645,0.9645,0.9645,0.9645,0,0.9039,0.9072,0.9116,0.9175,0.9213,0.9226,0.9273,0.9304,0.935,0.9392,0.9434,0.9492,0.9541,0.9584,0.9635,0.9659,0.9668,0.9671,0.967,0.9676,0.9648,0.9636,0.9663,0.9663,0.9663,0.9663,0.9663,0.9663,0.9061,0.9114,0.9138,0.9208,0.9241,0.9293,0.9319,0.9355,0.9389,0.9454,0.9494,0.9523,0.9566,0.9619,0.9664,0.9676,0.9693,0.9695,0.9708,0.968,0.9678,0.9676,0.9665,0.9698,0.9698,0.9733,0.9733,0.9734]}]]